Theta_e
315 314 313 312 311 311 311 311 312 313 314 314 315 317 318 317 312 300 297 302 311 319 320 309 306 307 309 305 304 302 299 295 294 294 296 297 296 296 296 295 295 296 295 294 298
315 314 313 312 311 310 310 310 311 312 313 314 315 316 317 316 300 298 304 312 316 318 306 305 304 305 305 303 303 304 299 297 297 298 296 296 298 295 295 293 293 292 292 294 293
315 314 313 312 311 310 310 310 311 311 313 314 315 316 316 313 297 297 308 314 315 315 306 305 305 304 302 302 298 298 299 296 294 296 296 296 296 297 296 293 298 295 293 292 292
315 313 313 312 311 310 309 310 310 311 312 313 315 316 316 305 292 299 310 311 312 309 305 304 302 302 301 299 296 296 293 294 294 295 294 294 297 293 296 299 295 299 296 293 292
316 314 312 311 311 309 309 309 310 311 312 313 315 315 306 297 296 302 307 305 305 305 302 302 301 300 298 295 295 295 293 293 293 293 294 294 293 296 294 298 293 295 294 292 293
316 314 312 311 311 309 308 309 309 310 312 313 314 314 301 293 300 302 302 302 302 303 301 302 301 300 295 293 295 293 293 292 293 293 292 293 292 291 297 298 292 292 292 293 293
316 314 312 311 311 310 308 308 309 310 312 313 313 302 298 296 301 303 302 301 301 302 301 300 301 300 296 293 293 293 291 292 292 292 292 293 291 290 296 292 292 291 293 292 293
316 314 312 312 311 310 308 307 308 310 312 312 311 300 294 300 303 301 302 301 301 301 300 301 302 297 295 295 292 291 292 291 292 292 291 291 292 293 296 291 292 292 292 291 291
316 314 312 312 312 310 308 307 308 310 312 309 301 297 292 303 297 300 302 299 300 300 300 299 300 295 293 294 291 290 290 289 290 292 290 291 292 291 290 291 293 292 291 291 291
316 314 312 313 312 310 307 307 309 305 302 296 296 294 293 293 297 298 301 300 299 298 299 299 296 294 292 292 288 289 287 287 289 289 288 289 289 293 291 289 291 293 292 291 291
316 315 313 313 312 310 306 304 296 294 294 292 291 291 292 296 298 296 299 298 297 297 294 292 292 290 293 292 288 290 288 287 287 287 287 289 290 292 295 290 290 292 292 291 291
316 315 314 313 312 309 302 294 295 298 289 294 294 294 294 296 291 294 299 295 295 291 291 291 289 290 290 289 288 288 287 288 287 286 286 288 287 291 293 293 293 293 293 292 292
316 315 314 313 311 305 299 296 301 300 294 290 294 293 293 295 290 292 295 292 291 289 290 290 288 288 288 287 286 286 287 285 286 286 286 285 289 290 293 293 293 294 295 295 293
316 314 313 312 303 300 297 301 301 300 290 289 290 293 293 294 290 295 295 293 288 289 288 288 288 287 287 286 288 284 287 286 284 285 284 285 284 291 294 291 290 291 292 293 294
315 314 313 310 300 295 298 302 301 301 284 289 288 296 293 291 291 290 295 292 287 286 288 287 286 286 285 286 287 285 286 286 284 284 282 282 281 290 288 290 294 294 293 293 294
315 313 311 299 298 298 301 301 302 289 280 284 288 288 288 289 288 290 291 293 291 288 288 286 288 287 287 285 286 286 285 284 284 283 284 280 281 286 290 291 291 293 292 291 293
314 313 308 301 295 299 299 298 286 282 286 282 284 286 287 285 286 287 287 286 286 283 283 285 285 287 287 285 286 285 285 288 284 281 284 279 278 286 291 292 290 292 293 292 292
313 311 304 301 301 300 298 288 280 285 285 284 285 286 285 286 285 285 285 284 287 287 284 283 281 285 288 286 285 284 286 289 281 280 282 277 279 288 291 292 292 291 291 291 291
308 300 298 299 301 301 291 280 285 286 286 284 284 283 283 284 285 284 284 285 287 287 288 283 282 284 285 286 286 284 282 284 279 270 278 284 287 292 292 290 290 291 290 291 291
301 297 295 301 302 297 287 284 286 287 286 285 285 285 282 283 283 283 283 287 286 288 288 287 280 282 283 285 285 284 285 281 282 278 278 280 279 285 291 292 291 290 291 293 291
299 290 296 302 301 292 284 287 286 287 289 286 287 283 285 282 284 283 285 286 287 285 288 286 287 279 283 282 282 281 281 281 283 282 282 280 284 291 290 291 292 294 292 292 291
296 285 297 302 286 285 285 286 290 285 288 288 289 286 285 284 284 283 283 284 287 287 284 286 283 279 280 282 282 282 282 283 285 280 277 279 284 290 290 290 290 292 291 291 290
287 285 296 297 282 283 285 286 288 286 286 287 287 288 286 285 284 284 285 286 288 287 286 287 285 279 277 280 280 279 281 281 278 281 277 282 284 286 287 288 289 288 292 290 289
288 282 284 286 286 286 285 285 285 288 287 289 287 288 286 285 285 283 283 284 286 287 291 290 284 285 282 281 280 277 279 281 281 282 282 281 287 289 291 287 289 289 289 291 288
288 284 286 282 283 286 287 286 286 284 286 289 285 287 287 283 284 284 282 283 285 286 285 288 285 279 281 280 280 280 280 280 278 281 281 285 281 286 289 290 290 291 289 288 287
285 284 285 283 286 285 286 285 286 285 284 283 285 287 287 285 286 282 282 283 284 284 284 284 281 278 280 278 279 277 281 281 280 281 281 282 282 287 288 288 287 287 288 287 288
286 287 288 285 285 284 285 286 287 288 287 289 287 286 285 289 290 289 290 289 287 285 284 284 282 282 282 277 280 281 284 280 281 281 283 279 285 289 288 288 289 289 289 288 288
Wind_Speed
12 10 8 6 4 4 3 3 3 4 4 4 4 6 7 7 1 1 2 2 4 9 5 3 2 4 3 5 3 1 3 4 5 8 3 12 15 6 2 6 5 8 2 3 18
13 12 9 7 6 4 4 4 3 4 4 6 4 5 6 7 2 2 2 5 7 6 3 7 6 4 5 4 3 3 4 4 1 4 5 15 16 13 8 9 9 7 4 8 19
14 13 11 8 7 5 5 5 4 3 4 4 6 6 6 3 2 3 1 7 6 3 2 0 5 3 4 1 3 2 2 3 3 3 3 12 13 10 10 11 12 17 15 17 19
15 14 12 10 7 6 5 5 4 3 4 5 6 7 6 2 4 2 7 7 3 3 3 5 3 5 5 6 2 4 2 2 3 4 8 10 9 8 16 5 1 9 18 21 21
14 15 13 11 9 6 5 5 4 4 4 4 6 6 2 3 1 2 8 4 3 4 3 4 5 5 6 5 4 3 5 2 2 7 6 8 10 7 13 12 3 9 18 21 20
14 14 14 12 10 8 6 5 4 4 4 5 5 6 3 5 1 4 4 1 3 2 3 1 5 6 9 4 1 4 4 4 4 5 4 8 5 5 8 13 10 14 18 19 20
16 16 15 14 11 8 6 5 5 4 4 5 4 1 2 1 1 2 1 2 1 1 4 2 7 4 6 7 4 7 3 1 5 4 3 4 9 19 10 12 14 14 16 18 19
18 16 16 14 11 8 6 5 4 5 5 4 2 1 1 0 1 2 0 4 4 6 8 9 11 11 4 10 4 2 2 4 5 7 3 4 10 0 10 12 15 15 15 17 20
19 17 17 15 12 9 6 4 4 4 4 2 2 2 3 1 3 1 1 6 6 4 6 5 6 5 4 5 4 2 4 7 2 8 4 11 8 2 4 11 14 15 16 18 18
21 19 18 15 14 10 6 3 2 2 1 1 2 3 2 4 2 1 1 3 5 5 4 4 5 4 4 6 6 5 5 4 7 5 6 9 22 10 5 11 16 16 17 19 20
23 21 18 16 15 13 7 4 4 2 1 3 2 3 4 2 1 2 2 5 3 4 5 2 5 10 11 7 2 5 4 4 2 3 6 16 20 21 14 14 17 18 19 21 23
25 23 21 17 16 13 4 4 4 2 5 1 2 3 2 2 4 1 2 5 6 5 5 5 10 2 7 7 3 3 2 5 2 3 5 7 18 21 18 25 25 24 24 24 21
27 25 22 19 16 7 6 5 2 2 3 3 2 3 3 5 3 10 5 4 3 8 11 6 2 6 3 6 8 4 6 4 4 1 4 11 14 6 5 16 19 21 24 21 22
27 27 25 21 8 6 6 4 3 1 0 6 7 4 3 3 3 1 2 2 2 9 9 2 5 5 5 5 5 5 3 2 1 3 5 5 11 9 13 13 12 14 17 19 19
30 30 31 24 11 8 5 9 5 2 5 6 5 1 3 4 7 2 2 0 9 8 7 5 9 7 5 3 5 2 3 4 2 0 4 3 6 4 3 10 10 5 12 15 17
31 32 32 5 2 1 10 12 2 5 13 5 4 6 9 2 2 4 1 5 3 5 5 4 2 0 3 4 2 12 6 5 3 1 5 3 5 4 3 3 2 4 5 4 11
34 35 27 10 8 8 8 4 5 8 2 7 7 8 6 6 5 4 8 8 8 8 8 3 2 1 3 8 4 2 6 1 2 2 5 3 5 13 6 8 8 9 3 2 7
34 32 11 3 10 10 4 6 9 4 5 2 5 10 9 8 2 5 10 11 8 2 6 10 6 11 7 2 6 9 3 4 5 4 1 3 9 6 5 4 7 5 7 6 8
28 4 3 9 11 4 15 9 9 6 8 12 6 6 4 4 5 6 9 8 11 13 9 9 4 2 2 0 1 7 7 3 7 2 2 4 8 13 7 11 12 13 6 8 9
8 4 3 10 10 11 11 13 7 4 8 6 7 4 11 9 9 11 13 7 7 13 1 6 5 1 1 1 2 3 6 4 0 5 7 3 7 10 4 1 3 3 11 10 6
5 5 3 6 7 9 7 5 6 7 6 8 4 6 5 10 9 9 9 1 5 5 4 5 3 4 4 10 10 5 4 1 1 3 4 3 6 7 7 3 5 3 2 5 10
4 4 4 8 7 3 4 7 6 5 2 1 3 5 7 9 7 10 11 1 3 12 9 1 5 6 4 1 3 2 4 7 5 7 2 3 7 2 7 5 4 8 5 3 6
5 4 3 1 5 6 1 3 6 5 8 6 3 1 2 7 5 5 6 5 4 5 10 9 3 4 2 2 2 7 9 5 4 2 9 6 5 2 4 7 7 10 7 5 5
5 6 0 1 2 5 5 4 6 1 8 5 6 6 5 3 3 5 4 4 4 3 3 6 3 3 6 3 5 7 10 16 11 7 6 14 5 11 8 9 6 6 8 6 7
1 3 5 11 10 4 8 9 9 7 2 3 3 7 9 4 3 2 3 2 6 8 5 3 2 2 3 4 4 6 6 15 21 21 12 2 14 18 17 19 11 8 6 7 10
2 3 1 2 8 9 6 8 11 5 11 6 8 11 5 10 11 10 9 5 6 2 3 1 5 4 4 2 6 9 14 12 19 18 17 22 23 17 21 14 17 7 9 9 9
1 1 1 6 11 10 10 5 12 10 5 4 14 7 12 16 7 9 5 6 12 11 8 7 7 5 7 1 3 18 16 19 12 10 13 17 21 17 18 26 21 17 9 13 14
Wind_Direction
195 199 196 191 202 244 257 276 306 311 309 310 333 340 337 338 216 166 140 342 298 311 321 288 138 105 84 84 54 222 196 202 190 178 149 155 182 162 124 154 197 189 260 34 151
201 194 199 198 194 223 247 261 295 306 318 311 324 332 335 332 127 108 137 305 305 310 211 175 150 138 82 84 52 230 230 196 171 186 175 176 194 164 183 182 208 201 164 148 158
203 195 188 205 198 214 235 256 274 301 309 312 317 321 332 299 177 160 26 317 313 296 268 139 116 91 95 84 48 81 253 139 155 188 187 175 196 170 199 211 212 208 176 167 174
197 201 194 192 205 213 233 250 276 303 317 314 309 317 312 198 198 129 338 318 300 164 180 142 139 114 134 164 109 154 112 244 152 168 161 177 157 203 210 210 345 198 171 171 183
196 201 196 198 196 215 227 248 270 286 292 297 305 316 228 203 158 35 335 334 123 152 166 161 160 139 150 127 129 129 166 177 200 186 190 148 188 206 223 214 172 171 170 180 189
191 197 196 196 198 197 228 245 266 280 288 296 308 319 231 210 85 340 321 107 76 168 112 167 167 109 103 88 283 113 147 155 197 172 157 203 187 197 227 195 183 179 185 190 192
189 200 201 195 195 195 207 242 261 277 289 293 320 331 220 68 337 328 28 86 112 132 118 39 117 47 132 115 120 131 116 216 199 176 160 229 228 229 211 185 195 195 194 195 199
184 193 202 193 191 193 205 234 263 283 281 279 316 179 164 265 292 47 41 77 83 65 95 93 89 91 40 120 100 153 223 231 154 165 126 224 259 277 192 185 207 202 200 200 201
179 186 199 192 184 185 198 228 264 274 270 310 181 250 175 137 180 66 345 117 102 89 84 104 72 85 151 157 144 177 258 228 259 193 147 217 277 109 188 215 225 214 207 206 206
176 177 192 184 180 176 181 222 230 137 67 162 92 174 170 189 120 41 48 107 116 128 105 50 79 128 149 198 228 190 220 233 252 142 220 232 258 253 221 219 228 224 217 216 214
174 172 179 180 176 170 149 161 156 158 205 243 117 84 126 106 184 66 347 124 120 99 163 49 197 208 202 201 90 131 183 250 216 115 234 241 261 267 249 231 231 226 222 221 221
173 174 174 178 173 169 153 213 213 110 148 327 106 91 121 202 117 191 193 167 164 155 141 150 233 159 124 149 157 172 214 245 234 130 228 292 278 272 250 236 234 231 225 222 217
173 170 165 162 158 152 217 221 135 202 86 185 234 167 171 173 120 175 181 135 149 149 189 193 88 135 134 161 169 192 222 214 285 323 236 302 268 269 265 248 246 241 239 231 220
172 165 159 144 145 156 211 220 171 247 22 189 197 187 144 182 142 7 297 128 116 182 166 221 129 157 154 189 190 220 182 128 101 310 292 345 292 297 281 274 244 247 234 232 222
171 164 156 159 133 172 191 142 140 234 252 103 152 50 130 198 124 182 354 141 154 147 191 160 166 166 177 186 183 115 110 101 83 261 317 173 260 258 286 289 291 296 234 222 216
172 164 157 101 134 164 132 130 160 67 236 148 126 165 149 85 70 119 139 43 114 106 48 80 4 348 78 80 11 141 106 86 84 338 268 119 257 264 237 223 305 13 16 217 207
169 163 161 150 174 146 137 119 77 210 18 177 162 174 176 142 130 160 169 173 168 143 186 128 153 129 165 104 117 216 157 208 219 191 240 128 255 264 245 237 250 282 235 105 184
166 158 131 111 136 137 99 66 202 159 174 149 114 138 184 151 143 145 155 197 225 167 143 175 206 178 165 253 188 188 214 195 227 213 17 132 238 246 235 229 216 234 252 230 202
121 88 75 143 144 136 137 190 206 199 153 145 109 125 190 188 144 161 196 218 209 196 202 177 190 57 50 115 194 162 216 77 103 113 248 244 275 270 275 262 247 231 197 207 194
117 90 49 139 148 142 149 193 213 196 134 178 164 172 173 174 162 184 177 189 202 194 279 166 117 24 76 209 62 243 147 131 340 219 233 217 280 251 265 241 11 208 229 219 195
67 85 124 120 140 155 191 188 196 197 155 164 168 128 155 171 183 188 188 183 211 165 139 146 140 116 151 210 188 155 191 198 241 211 247 238 232 200 235 244 270 257 220 233 209
105 94 171 160 141 208 191 173 194 151 138 104 115 113 163 163 154 206 200 345 112 141 174 109 94 149 182 24 325 259 220 191 210 193 256 328 258 155 231 232 254 272 278 205 191
87 103 338 236 163 192 201 202 194 135 163 158 199 57 124 161 149 195 169 355 148 145 156 177 201 136 155 212 175 219 200 199 90 47 190 200 238 100 251 268 250 249 254 228 190
125 118 38 93 272 153 161 191 162 248 145 152 147 113 128 94 31 159 132 22 14 55 85 97 127 202 240 121 119 191 219 208 202 216 180 222 273 295 286 234 237 229 235 231 205
47 155 176 188 217 171 169 175 176 152 88 170 169 206 158 125 228 213 99 123 30 5 21 146 201 147 255 222 195 218 205 196 209 224 229 243 214 240 259 268 245 237 232 206 218
132 140 77 78 150 167 187 190 197 159 155 202 219 184 169 176 196 172 141 184 171 123 153 319 176 146 246 232 238 260 234 210 212 227 248 258 254 257 265 277 276 241 228 224 229
95 21 318 141 172 183 202 170 196 149 225 202 190 128 181 208 126 126 183 136 148 151 172 168 144 152 241 205 291 271 229 203 205 183 193 221 229 238 250 252 259 275 229 239 229